Location: Nitra
(0.0000°N, 18.0833°E)
Time: 16:11:55
(UTC+01:00)

Tiangong - Visible Passes

Search period start: 24 January 2026 00:00
Search period end: 03 February 2026 00:00
Orbit: 378 x 392 km, 41.5° (Epoch: 24 January)

Date Brightness Start Highest point End Pass type
(mag) Time Alt. Az. Time Alt. Az. Time Alt. Az.
31 Jan -0.7 19:24:54 10° SSW 19:26:59 29° S 19:26:59 29° S visible
1 Feb 0.1 18:26:01 10° S 18:27:48 14° SE 18:29:33 10° ESE visible
1 Feb 1.1 20:01:53 10° W 20:02:28 13° W 20:02:28 13° W visible
2 Feb -2.0 19:01:16 10° SW 19:04:24 70° NW 19:05:44 30° NNE visible
